Wind_Speed
18 18 18 18 18 18 18 18 19 19 19 19 19 18 18 18 19 19 19 18 19 19 19 19 19 19 18 19 19 19 19 19 18 18 18 18 18 18
19 18 19 18 18 18 18 18 18 18 19 19 19 19 19 19 19 19 19 20 19 19 20 21 20 19 18 18 19 19 20 20 19 18 18 18 18 18
20 20 20 19 19 19 19 19 19 19 19 19 19 19 19 20 19 19 20 20 20 20 20 21 20 20 19 19 20 20 20 20 19 19 18 19 19 19
20 21 21 21 20 20 19 19 20 20 20 20 20 21 21 20 21 20 20 20 20 20 20 20 20 20 21 20 21 21 21 21 20 20 20 20 20 20
21 21 22 22 22 21 20 20 21 21 22 22 21 22 22 21 21 21 20 20 20 19 19 20 21 22 22 22 22 22 22 22 21 21 21 21 21 21
22 22 22 23 23 23 22 22 22 22 22 22 23 23 23 23 23 22 22 21 21 21 21 21 22 22 22 22 23 22 22 22 23 23 23 22 22 22
24 24 23 23 24 24 24 24 24 24 24 23 24 24 24 25 25 24 24 23 23 23 23 23 23 23 23 22 22 23 23 23 24 24 24 23 23 23
24 24 25 25 25 26 25 26 26 25 25 25 25 25 25 26 26 26 26 25 25 24 24 24 24 23 23 23 23 24 24 24 24 24 24 24 24 24
24 25 26 26 26 27 28 28 27 27 27 27 27 27 27 27 27 27 26 26 26 26 26 25 24 24 24 24 24 25 25 25 25 25 25 25 24 24
25 26 27 27 28 28 28 28 28 27 27 28 29 28 28 27 27 27 27 27 26 26 27 26 26 26 26 26 25 25 26 26 27 27 27 27 26 26
25 27 27 28 28 29 29 29 29 29 29 29 29 30 29 29 29 29 29 28 28 28 28 28 27 27 27 27 27 26 27 27 27 28 28 28 28 27
26 27 28 28 29 30 30 30 30 31 31 30 30 30 31 30 30 30 30 29 29 29 29 29 29 29 28 28 29 28 27 27 28 28 28 29 29 28
27 28 28 29 29 30 30 31 31 31 31 31 32 32 31 31 31 31 31 31 31 30 31 30 30 30 29 29 29 29 28 28 28 29 29 29 29 29
29 29 29 30 30 30 31 31 31 32 32 31 32 33 32 32 32 32 33 33 33 32 32 32 31 31 31 30 30 30 30 29 29 29 29 30 30 30
29 30 30 31 31 31 31 31 30 31 32 32 32 33 33 33 33 33 34 34 34 33 33 33 33 32 32 32 32 31 31 30 30 30 30 31 31 32
31 31 32 32 32 32 32 31 31 31 32 33 33 33 34 35 35 35 35 35 35 34 34 34 34 33 33 33 33 33 33 32 32 32 32 32 33 33
33 33 33 33 33 33 32 32 32 32 33 34 35 35 35 35 36 36 36 37 37 36 36 36 36 35 35 35 35 35 35 34 34 34 34 34 34 35
34 34 34 33 33 33 33 33 33 33 34 34 35 36 36 36 36 37 36 37 37 37 37 36 37 37 36 36 36 36 35 36 36 36 36 36 36 37
33 33 33 33 33 33 33 33 34 34 34 35 35 35 36 36 36 36 36 37 37 37 37 37 37 37 37 37 37 37 37 37 37 37 38 38 38 38
33 33 33 34 34 33 33 34 34 34 35 35 36 36 36 36 36 36 36 37 37 37 37 38 39 39 39 38 39 39 39 38 38 38 39 39 40 40
33 33 33 33 34 34 34 34 35 35 35 35 35 36 36 37 36 37 37 38 38 39 39 39 39 39 40 40 40 40 41 41 41 40 40 41 41 41
33 33 33 33 34 35 35 35 36 36 36 36 36 37 37 37 37 38 38 39 40 41 41 40 40 40 40 40 40 40 40 40 40 40 40 40 40 40
33 34 34 34 35 36 36 37 37 36 37 37 37 38 38 38 38 38 39 40 41 41 41 41 42 41 41 41 40 40 40 40 40 40 40 39 40 39
Wind_Direction
254 255 255 256 259 260 260 260 260 261 262 264 266 266 266 267 267 267 266 268 269 268 266 266 266 266 266 265 265 265 266 264 262 261 259 256 256 258
254 255 256 258 259 260 262 263 262 262 262 261 263 264 265 266 268 268 268 270 270 268 266 264 265 265 265 265 265 264 264 263 262 260 257 256 256 258
254 255 257 257 259 261 262 262 262 262 262 261 263 263 264 267 268 268 269 269 271 270 267 264 263 263 264 265 265 264 264 263 263 261 258 257 257 260
254 256 256 256 259 261 262 262 262 262 263 263 264 266 266 267 268 268 268 268 269 269 267 264 263 264 265 264 263 263 263 262 261 260 260 260 259 261
256 257 257 257 259 260 262 263 264 263 262 263 263 266 266 267 268 268 268 268 270 270 267 266 264 264 265 264 262 262 263 260 259 259 260 261 261 262
259 258 257 258 259 260 263 265 266 265 264 263 264 265 265 265 267 267 267 268 268 269 267 265 265 265 266 264 261 261 261 260 260 260 260 262 263 264
261 260 258 258 260 261 263 265 265 266 265 265 265 266 265 265 266 267 267 267 267 267 267 267 267 266 266 264 261 261 261 261 260 260 261 262 263 264
264 264 263 261 262 262 262 263 264 265 265 265 264 265 266 265 265 266 266 266 267 267 266 265 265 264 264 264 263 262 262 262 262 261 262 262 263 265
264 264 264 265 265 264 264 264 264 264 264 265 265 265 266 265 266 266 266 266 267 266 267 266 265 265 265 264 263 264 263 261 261 262 263 263 264 266
265 264 264 264 267 268 268 267 265 264 263 264 265 265 266 266 266 265 265 265 266 268 269 268 267 266 265 265 265 264 264 263 262 263 263 264 264 265
267 267 266 266 267 268 269 269 267 265 264 264 265 265 264 265 265 265 265 266 267 268 269 268 267 266 266 266 267 266 265 264 264 263 263 263 264 264
268 267 267 269 269 268 269 269 269 267 265 265 265 265 264 264 265 265 265 266 267 266 267 268 267 267 266 266 267 267 266 265 265 264 263 263 262 262
268 268 269 270 270 269 269 269 269 268 268 266 265 265 264 264 264 265 265 266 267 266 265 265 266 267 267 266 267 266 266 266 265 264 264 263 262 263
269 268 269 270 269 270 269 268 268 267 268 268 267 266 266 265 264 264 264 265 265 266 265 264 265 265 265 265 266 265 265 266 266 265 264 263 264 264
270 269 269 270 270 270 270 269 267 266 267 267 267 266 266 266 265 264 264 264 264 265 264 264 264 264 264 264 264 265 265 265 266 266 265 264 265 266
270 270 270 270 271 271 271 269 267 266 266 266 266 267 267 267 266 265 265 264 264 263 263 263 264 264 265 264 264 265 265 265 266 267 266 265 266 267
269 269 270 270 271 271 270 269 267 268 268 268 267 267 268 268 266 265 266 265 263 262 262 263 264 265 266 265 265 266 266 265 266 267 267 267 266 267
269 269 269 269 270 270 269 269 269 270 269 269 268 268 268 268 267 266 265 265 264 263 262 262 262 264 265 266 266 266 266 266 266 267 267 267 268 267
270 270 269 269 269 269 269 269 270 270 269 269 268 268 268 270 269 266 264 263 264 263 263 262 262 263 264 265 265 265 265 266 267 267 268 268 268 268
271 271 270 269 269 269 269 269 270 269 269 269 269 269 268 269 269 267 264 263 263 263 261 261 262 263 264 264 263 263 264 266 267 268 268 268 268 268
272 272 271 270 270 269 269 270 270 270 269 269 268 268 268 268 268 268 265 262 262 262 262 262 262 263 264 264 264 263 264 265 267 268 268 269 268 268
272 272 272 272 271 270 270 271 270 269 269 269 268 268 268 268 267 268 266 264 263 263 263 263 263 264 265 265 265 265 265 265 266 267 268 269 268 268
273 273 273 273 272 271 272 272 272 271 270 269 268 267 267 267 268 268 267 265 264 263 263 263 263 264 265 266 266 266 266 267 267 267 268 268 268 267
Height
5800 5801 5801 5802 5802 5803 5803 5803 5804 5804 5804 5804 5804 5803 5802 5802 5801 5801 5800 5800 5799 5798 5798 5798 5798 5798 5797 5797 5797 5797 5797 5797 5797 5797 5797 5798 5798 5799
5795 5796 5796 5797 5797 5798 5798 5798 5798 5798 5798 5798 5798 5798 5797 5797 5796 5796 5795 5794 5793 5792 5791 5791 5792 5792 5792 5792 5792 5792 5792 5792 5792 5792 5793 5793 5794 5794
5790 5790 5791 5792 5792 5792 5793 5793 5793 5793 5793 5793 5793 5792 5792 5792 5791 5790 5789 5788 5787 5785 5785 5785 5786 5786 5787 5787 5787 5787 5787 5787 5787 5788 5788 5788 5789 5789
5784 5785 5785 5786 5786 5787 5787 5787 5787 5787 5787 5787 5787 5787 5786 5786 5785 5784 5783 5782 5781 5780 5779 5779 5780 5781 5781 5781 5781 5781 5782 5782 5782 5782 5783 5783 5784 5784
5778 5779 5779 5780 5780 5781 5781 5781 5781 5781 5781 5781 5781 5781 5780 5780 5779 5779 5778 5777 5776 5775 5774 5774 5775 5775 5775 5775 5776 5776 5776 5776 5776 5777 5777 5778 5778 5778
5772 5772 5773 5773 5774 5774 5775 5775 5775 5775 5774 5774 5774 5774 5774 5773 5773 5773 5772 5771 5770 5770 5769 5769 5769 5769 5769 5769 5769 5770 5770 5770 5770 5771 5771 5772 5772 5772
5765 5765 5766 5766 5767 5767 5768 5768 5768 5768 5768 5768 5768 5767 5767 5767 5766 5766 5765 5765 5764 5764 5763 5763 5763 5763 5763 5763 5763 5763 5763 5764 5764 5765 5765 5765 5766 5766
5757 5758 5758 5759 5759 5760 5760 5760 5760 5760 5760 5761 5761 5760 5760 5759 5759 5759 5758 5758 5758 5758 5757 5757 5756 5756 5756 5756 5756 5757 5757 5757 5758 5758 5758 5759 5759 5759
5750 5751 5751 5752 5752 5752 5752 5752 5752 5752 5753 5753 5753 5752 5752 5752 5752 5751 5751 5751 5750 5750 5750 5750 5749 5749 5749 5749 5750 5750 5750 5750 5751 5751 5751 5752 5752 5752
5743 5743 5743 5743 5743 5743 5743 5743 5744 5744 5744 5744 5744 5744 5744 5743 5743 5743 5743 5743 5743 5743 5742 5743 5743 5742 5742 5742 5742 5743 5743 5743 5743 5744 5744 5744 5745 5745
5735 5735 5734 5735 5735 5735 5734 5734 5735 5735 5734 5734 5734 5735 5734 5734 5734 5735 5735 5735 5735 5735 5735 5735 5735 5735 5735 5735 5735 5735 5735 5735 5735 5736 5736 5737 5737 5737
5726 5726 5726 5726 5726 5725 5725 5725 5725 5725 5725 5725 5725 5725 5725 5725 5725 5725 5726 5726 5726 5727 5727 5726 5726 5726 5727 5727 5727 5727 5727 5727 5727 5727 5728 5728 5728 5729
5717 5717 5717 5717 5716 5716 5715 5716 5716 5715 5715 5715 5715 5715 5715 5716 5716 5716 5716 5717 5717 5717 5718 5717 5718 5717 5718 5719 5719 5718 5719 5719 5719 5719 5719 5719 5719 5720
5708 5708 5707 5707 5706 5706 5706 5706 5706 5705 5705 5705 5705 5705 5705 5706 5706 5706 5706 5707 5707 5707 5708 5708 5708 5709 5709 5709 5710 5710 5710 5710 5710 5710 5710 5710 5710 5711
5698 5698 5697 5697 5696 5696 5696 5696 5695 5695 5695 5695 5695 5695 5695 5695 5695 5695 5695 5696 5696 5697 5697 5698 5698 5699 5699 5700 5700 5700 5701 5701 5701 5701 5701 5701 5701 5701
5688 5687 5687 5686 5686 5686 5685 5685 5685 5685 5685 5684 5684 5684 5684 5684 5684 5684 5684 5684 5685 5686 5686 5687 5687 5688 5689 5689 5690 5690 5691 5691 5691 5691 5691 5691 5691 5691
5677 5676 5676 5676 5675 5675 5674 5674 5674 5674 5673 5673 5673 5672 5672 5672 5672 5672 5672 5673 5673 5674 5675 5676 5677 5677 5678 5678 5679 5679 5680 5680 5680 5680 5680 5680 5681 5681
5665 5665 5665 5665 5665 5664 5664 5663 5663 5662 5662 5662 5661 5661 5660 5660 5660 5660 5660 5660 5661 5662 5663 5664 5665 5666 5666 5667 5668 5668 5668 5669 5669 5669 5669 5669 5669 5669
5654 5654 5654 5653 5653 5653 5653 5652 5652 5651 5651 5650 5650 5650 5649 5648 5648 5647 5648 5648 5649 5650 5651 5652 5653 5653 5655 5656 5656 5657 5657 5657 5657 5657 5657 5657 5657 5657
5643 5643 5642 5642 5642 5642 5641 5641 5640 5639 5639 5638 5638 5638 5638 5637 5636 5636 5636 5636 5637 5638 5638 5639 5640 5641 5643 5644 5644 5644 5644 5645 5645 5645 5645 5644 5644 5644
5632 5631 5631 5631 5630 5630 5630 5629 5628 5628 5627 5627 5626 5626 5626 5625 5625 5624 5624 5625 5625 5625 5626 5627 5628 5629 5629 5630 5630 5631 5632 5631 5632 5631 5631 5631 5631 5631
5620 5620 5619 5619 5619 5618 5618 5617 5616 5616 5615 5615 5614 5614 5613 5613 5612 5612 5612 5612 5612 5613 5614 5615 5615 5615 5616 5616 5617 5618 5618 5618 5618 5618 5618 5618 5617 5617
5609 5608 5608 5607 5606 5606 5605 5605 5604 5603 5603 5602 5602 5601 5600 5600 5599 5599 5599 5599 5599 5600 5600 5601 5602 5602 5603 5603 5604 5604 5605 5605 5605 5605 5606 5605 5605 5605